Other Public Products
Issued by NWS Grand Forks, ND

Home | Current Version | Previous Version | Graphics & Text | Print | Product List | Glossary On
Versions: 1 2 3 4 5 6 7 8 9 10 11 12 13 14 15 16 17 18 19 20 21 22 23 24 25 26 27 28 29 30 31 32 33 34 35 36 37 38 39 40 41 42 43 44 45 46 47 48 49 50
000
FPUS83 KFGF 252310
OPUFGF
PRAIRIE TO PINES WEATHER ROUNDUP
NATIONAL WEATHER SERVICE EASTERN NORTH DAKOTA/GRAND FORKS ND
600 PM CDT SAT MAR 25 2017

 **SATELLITE DATA USED TO AUGMENT SKY COVER AT AUTOMATED STATIONS**
 *****  WEATHER ACROSS EASTERN NORTH DAKOTA  *****

CITY           SKY/WX    TMP DP  RH WIND       PRES   REMARKS
GRAND FORKS    PTSUNNY   38  34  85 S14       30.04F
GRAND FORKS AF PTSUNNY   36  33  88 S12       30.04S
GRAND CITY NWS NOT AVBL
BUXTON         NOT AVBL
DEVILS LAKE    FAIR      39  33  79 S16       29.96S
FARGO          FAIR      41  35  79 S13       30.04F
WAHPETON ARPT    N/A     41  32  70 SE7       30.05F
$$

 *****  WEATHER ACROSS CENTRAL AND WESTERN NORTH DAKOTA  *****

CITY           SKY/WX    TMP DP  RH WIND       PRES   REMARKS
JAMESTOWN      FAIR      44  34  67 SE14      29.97F
BISMARCK       FAIR      55  30  38 S7        29.92F
MINOT          FAIR      51  37  58 S9        29.87S
MINOT AFB      FAIR      50  39  67 S10       29.86S
GARRISON         N/A     49  37  63 S7        29.87F
WILLISTON      FAIR      60  28  29 W9        29.86S
DICKINSON      PTSUNNY   57  23  26 N13       29.85S
HETTINGER      FAIR      59  34  39 CALM      29.87S
$$

 *****  OTHER OBSERVATIONS NORTHEAST NORTH DAKOTA  *****

CITY           SKY/WX    TMP DP  RH WIND       PRES   REMARKS
WALHALLA       NOT AVBL
LANGDON        CLOUDY    36  34  93 S17       29.95S
CAVALIER         N/A     34  32  93 S20G26    29.99F WCI  22
GRAFTON        FAIR      36  34  93 S15       30.04F
CANDO          NOT AVBL
FORT TOTTEN      N/A     39  37  93 S13       29.95S
ROLLA          FAIR      36  36 100 S12       29.92R
RUGBY            N/A     37  36  93 S8        29.91S
 ***** THE ABOVE OBSERVATIONS ARE NON NWS ARE NOT QUALITY
        CONTROLLED AND MAY MIS-REPORT RAIN FOR SNOW...
$$

 *****  OTHER OBSERVATIONS SOUTHEAST NORTH DAKOTA *****

CITY           SKY/WX    TMP DP  RH WIND       PRES   REMARKS
COOPERSTOWN    CLOUDY    36  34  93 S16G24    30.00F
VALLEY CITY    CLOUDY    36  36 100 S13       30.02S
OAKES          NOT AVBL
GWINNER        CLEAR     39  32  75 MISG      30.02F
SHEYENNE NWR     N/A     38  30  73 SE12      29.95S
BUFFALO        NOT AVBL
WYNDMERE       NOT AVBL
 ***** THE ABOVE OBSERVATIONS ARE NON NWS ARE NOT QUALITY
       CONTROLLED AND MAY MIS-REPORT RAIN FOR SNOW...
$$

  *****  WEATHER ACROSS NORTHERN MINNESOTA  *****

CITY           SKY/WX    TMP DP  RH WIND       PRES   REMARKS
FLAG ISLAND    FAIR      36  28  75 S13       30.06F
WARROAD        FAIR      43  32  65 S7        30.06S
ROSEAU         FAIR      43  34  70 S6        30.05S
HALLOCK        FAIR      37  34  87 S9        30.04S
THF RVR FALLS  FAIR     N/A N/A N/A SE8       30.04F
HALSTAD          N/A     40  36  83 S12         N/A
FOSSTON        FAIR      48  37  66 E3        30.04F
BAUDETTE       FAIR      43  27  53 SE12      30.07F
WASKISH        FAIR      43  30  61 SE9       30.07F
CROOKSTON      FAIR      41  37  87 SW8       30.05R
$$
  *****  WEATHER ACROSS CENTRAL AND WEST MINNESOTA  *****

CITY           SKY/WX    TMP DP  RH WIND       PRES   REMARKS
BEMIDJI        FAIR      41  29  63 SE13      30.07S
PARK RAPIDS    FAIR      46  26  45 E9        30.05F
WADENA         FAIR      46  30  53 E8        30.05F
DETROIT LAKES  FAIR      46  32  57 SE9       30.04F
MOORHEAD       FAIR      41  34  75 S9        30.05F
FERGUS FALLS   FAIR      46  32  57 S7        30.07F
ELBOW LAKE     FAIR      44  32  64 SE9       30.06S
MORRIS MN      CLOUDY    39  34  81 SE14      30.05F
STAPLES        FAIR      46  27  46 E7        30.06F
WHEATON        CLOUDY    41  32  70 E9        30.08S
$$
  *****  WEATHER ELSEWHERE ACROSS MINNESOTA  *****

CITY           SKY/WX    TMP DP  RH WIND       PRES   REMARKS
DULUTH         CLOUDY    31  28  89 E15G23    30.15S WCI  20
INTRNTL FALLS  FAIR      40  26  57 SE12      30.11F
ELY            CLOUDY    34  25  69 SE10      30.17S
CLOQUET        CLOUDY    32  28  86 E10G17    30.15R WCI  24
BRAINERD       FAIR      45  30  55 E9        30.08F
HIBBING        CLOUDY    33  27  78 SE13      30.14F WCI  24
ALEXANDRIA     PTSUNNY   41  32  70 SE10      30.06F
SAINT CLOUD    CLOUDY    43  34  70 NE9       30.07F
MINNEAPOLIS    CLOUDY    43  32  65 NE13      30.06F
$$

  *****  WEATHER ACROSS SOUTH DAKOTA  *****

CITY           SKY/WX    TMP DP  RH WIND       PRES   REMARKS
SIOUX FALLS    CLOUDY    42  38  85 E9        30.00S
BROOKINGS      NOT AVBL
WATERTOWN      CLOUDY    36  33  89 VRB7      30.00F
HURON          FAIR      47  36  65 E9        29.98F
SISSETON         N/A     39  34  82 S12       30.04F
ABERDEEN       FAIR      48  32  53 SE13      29.98F
MITCHELL       CLOUDY    46  37  71 E14       29.99S
PIERRE         FAIR      56  31  38 E16       29.89F
MOBRIDGE       FAIR      58  28  32 SE14      29.88F
RAPID CITY     FAIR      63  30  28 NW13      29.81F
$$

  *****  SOME WEATHER IN NEARBY STATES *****

CITY           SKY/WX    TMP DP  RH WIND       PRES   REMARKS
GLASGOW MT     FAIR      58  24  27 W5        29.86F
GREAT FALLS MT PTSUNNY   52  17  25 SW8       29.88S
CHEYENNE WY    FAIR      56  16  20 S14       29.88F
SCOTTSBLUFF NE FAIR      67  27  22 SE7       29.82S
OMAHA NE       CLOUDY    43  37  79 N14       29.93R
DES MOINES IA  CLOUDY    44  41  89 NE10      29.89F
DAVENPORT IA   CLOUDY    50  48  93 E16       29.90S
CHICAGO IL     RAIN      43  41  93 N8        29.98F FOG
EAU CLAIRE WI  CLOUDY    40  33  76 NE14      30.08S
LA CROSSE WI   LGT RAIN  40  36  86 NE9       30.05S
$$

  *****  SOME NATIONAL WEATHER *****

CITY           SKY/WX    TMP DP  RH WIND       PRES   REMARKS
LA GUARDIA NY  CLOUDY    51  38  60 E6        30.28R
RALEIGH NC     MOCLDY    72  48  42 S8        30.19F
ATLANTA GA     FAIR      74  50  42 SE13      30.09F
NEW ORLEANS LA PTSUNNY   66  62  87 S10       29.99S
OKLAHOMA CITY  FAIR      60  43  53 NW5       29.91F
ALBUQUERQUE NM FAIR      71  15  11 S20G28    29.86F
SALT LAKE CITY CLOUDY    42  37  82 CALM      29.99S
LOS ANGELES CA PTSUNNY   63  56  78 SW15      30.04F
BOISE ID       FAIR      57  31  37 N13       30.00F
SEATTLE WA     PTSUNNY   50  38  63 SW12      30.10S
$$

*** WEATHER ACROSS MANITOBA...SASKATCHEWAN AND ONTARIO ***
                ***ONTARIO***

CITY           SKY/WX    TMP DP  RH WIND       PRES   REMARKS
GERALDTON      PTSUNNY   34   1  25 E12       30.29F
THUNDER BAY    MOSUNNY   30  21  69 E12       30.30S WCI  21
SIOUX LOOKOUT  PTSUNNY   39  18  41 S5        30.13F
TORONTO        MOCLDY    37  32  81 E12G17    30.33F
BIG TROUT LK   PTSUNNY   27   7  43 SE12G18   30.19F WCI  16
PICKLE LAKE    CLOUDY    32  -2  23 SE13      30.20F WCI  22
DRYDEN         PTSUNNY   41  23  48 SE8       30.10F
KENORA         PTSUNNY   39  27  60 S9        30.07F
$$
                *** MANITOBA***

CITY           SKY/WX    TMP DP  RH WIND       PRES   REMARKS
BRANDON        CLOUDY    39  32  75 S5        29.87F
DAUPHIN        SUNNY     45  34  65 SW14G22   29.78S
ISLAND LAKE    CLOUDY    39  25  56 SE18G24   29.94F
PILOT MOUND      N/A     34  32  93 S12         N/A
THE PAS        CLOUDY    36  32  87 S9        29.65F
THOMPSON       LGT SNOW  27  23  86 E7        29.79F DRFTSNOWWCI  19
WINNIPEG       CLOUDY    36  32  87 S25G36    29.99S
LYNN LAKE      LGT SNOW  21  19  93 E10       29.78F WCI  10
CHURCHILL      CLOUDY    14   9  79 SE15      30.14F WCI  -1
GILLAM         FLURRIES  30  10  43 E7        29.97F WCI  23
$$
                ***SASKATCHEWAN***

CITY           SKY/WX    TMP DP  RH WIND       PRES   REMARKS
ESTEVAN        MOSUNNY   54  34  47 W9        29.83R
KINDERSLEY     PTSUNNY   55  27  33 W10       29.75S
LLOYDMINSTER   PTSUNNY   37  30  75 NW5       29.78R
PRINCE ALBERT  PTSUNNY   36  30  80 W13       29.78R
REGINA         PTSUNNY   52  36  54 NW15      29.83R
YORKTON        MOSUNNY   45  36  70 W14G21    29.77R



USA.gov is the U.S. government's official web portal to all federal, state and local government web resources and services.